User: anonymous   Login
Location: Hastringsfeld
(50.9620°N, 10.4787°E)
Time: 22:06:51
(UTC+00:00)
Language:

Cosmos 292 Rocket - Orbit

View from above orbital plane
View from above orbital plane
View from above satellite
View from above satellite

Ground track
Ground track

The orbit data is extracted from the following two-line orbital elements,

1 04071U 69070B   24055.57822741  .00001061  00000-0  20649-3 0  9998
2 04071  74.0480 119.9097 0014309 196.6097 163.4604 14.64315390895134
Epoch (UTC): 24 February 2024 13:52:38
Eccentricity: 0.0014309
inclination: 74.0480°
perigee height: 669 km
apogee height: 689 km
right ascension of ascending node: 119.9097°
argument of perigee: 196.6097°
revolutions per day: 14.64315390
mean anomaly at epoch: 163.4604°
orbit number at epoch: 89513

The dashed part of the orbit path shows where the satellite is in the earth's shadow,  

DLR